Location: Unspecified
(35.6961°N, 0.0000°E)
Time: 18:34:16
(UTC+00:00)

Vanguard 3 - Pass Details

Date: 27 May 2019
Orbit: 508 x 3263 km, 33.3° (Epoch: 24 June)

Event Time Altitude Azimuth Distance (km) Brightness Sun altitude
Rises 17:48:20 0° 204° (SSW) 2,641 9.9 14.0°
Reaches altitude 10° 17:51:06 10° 178° (S) 1,894 8.9 13.4°
Maximum altitude 17:53:35 15° 142° (SE) 1,758 8.5 13.0°
Drops below altitude 10° 17:56:35 10° 106° (ESE) 2,366 9.0 12.4°
Sets 18:00:45 0° 86° (E) 3,777 10.0 11.6°
